Temperature
23 22 21 21 20 20 22 25 27 27 27 27 27 26 25 24 23 22 22 22 22 22 21 21 20 20 20 20 20 20 19 19 19 19 19 19 19 19 19 19 19 19 18 18 18 18 18 18 18
23 22 22 21 20 21 23 26 27 28 28 27 26 25 25 24 23 22 21 22 22 22 21 21 20 20 20 20 20 19 19 19 19 19 19 19 19 19 18 18 18 18 18 18 18 18 18 18 18
23 22 22 19 20 21 24 26 27 28 28 27 26 25 24 24 23 22 22 22 22 22 21 21 20 20 20 20 20 19 19 19 19 19 19 19 18 18 18 18 18 18 18 18 18 18 18 18 18
23 22 22 20 21 23 25 26 27 27 28 27 25 24 24 24 24 23 23 22 22 22 21 21 21 20 20 20 19 19 19 19 19 19 18 18 18 18 18 18 18 18 18 18 18 18 18 18 17
23 22 20 20 22 25 27 28 28 27 27 26 24 23 23 23 24 23 22 22 22 21 21 21 21 20 20 20 20 19 19 19 19 18 18 18 18 18 18 18 18 18 18 18 18 18 18 18 17
23 21 20 21 23 27 28 28 28 27 26 25 24 22 22 23 23 22 22 21 22 21 21 21 20 20 20 20 19 19 19 19 19 18 18 18 18 18 18 18 18 18 18 18 18 18 18 17 17
23 21 21 23 24 27 28 29 28 26 26 25 24 21 21 21 22 22 21 21 21 21 21 20 20 20 20 20 20 19 19 19 19 19 18 18 18 18 18 18 18 18 18 18 18 18 18 17 17
25 21 22 23 25 27 29 29 29 27 26 26 25 22 21 21 21 21 20 20 20 21 21 20 20 20 20 20 19 19 19 19 19 18 18 18 18 18 18 18 18 18 18 18 18 18 18 18 17
26 22 21 23 26 28 29 29 28 28 27 26 25 25 24 22 21 20 20 20 20 20 20 20 20 20 20 19 19 19 19 19 19 19 18 18 18 18 18 18 18 18 18 18 18 18 18 18 17
25 21 23 26 27 28 29 29 28 27 25 24 24 24 23 22 21 20 20 20 20 20 20 20 20 20 20 19 19 19 19 19 19 19 18 18 18 18 18 18 18 18 18 18 18 18 18 18 17
25 24 26 27 29 29 29 28 28 27 25 25 24 23 22 22 21 20 20 20 20 20 20 20 20 20 20 19 19 19 19 19 19 18 18 18 18 18 18 18 18 18 18 18 18 18 18 18 18
26 26 28 29 30 29 29 28 27 27 27 27 26 24 23 22 21 20 20 20 20 20 20 20 20 19 19 20 20 19 19 19 19 18 18 18 18 18 18 18 18 18 18 18 18 18 18 18 18
26 27 29 29 29 29 29 28 27 27 27 26 25 24 23 22 21 21 20 20 20 20 20 19 19 19 19 19 19 19 19 19 19 18 18 18 18 18 18 18 18 18 18 18 18 18 18 18 18
27 28 28 29 29 29 28 27 26 26 26 25 24 23 23 22 22 21 20 20 20 20 19 19 19 19 19 19 19 19 19 19 18 18 18 18 18 18 18 18 18 18 18 18 18 18 18 17 17
28 26 26 28 29 29 28 26 26 27 26 24 23 23 22 22 22 21 20 20 20 19 19 19 19 19 19 19 19 19 19 18 18 18 18 18 18 18 18 18 18 18 18 18 18 17 17 17 17
26 25 25 27 28 28 27 26 26 26 25 24 23 22 22 22 22 21 21 20 20 19 19 19 18 18 19 19 19 19 19 19 18 18 18 18 18 18 18 18 18 18 18 17 17 17 17 17 17
24 24 24 26 28 28 27 25 26 26 25 23 23 22 22 21 21 21 21 20 20 20 19 19 19 19 18 18 19 19 19 19 19 18 18 18 18 18 18 18 18 18 18 17 17 17 17 17 17
23 24 25 26 28 28 26 25 25 25 25 23 23 22 22 21 21 21 21 20 20 20 19 19 19 19 18 18 18 18 19 18 18 18 18 18 18 18 18 18 18 18 17 17 17 17 17 17 17
25 25 25 26 28 27 26 25 25 25 24 23 23 22 21 21 21 21 20 20 20 19 19 19 19 19 19 18 18 18 18 18 18 18 18 18 18 18 18 18 18 17 17 17 17 17 17 17 17
25 25 25 26 28 27 26 25 24 24 24 23 23 22 21 21 20 20 20 20 20 19 19 19 19 19 18 18 18 18 18 18 18 18 18 18 18 18 17 17 17 17 17 17 17 17 17 17 17
25 25 25 26 26 26 25 23 23 23 23 23 22 22 21 21 21 20 20 20 19 19 19 19 19 19 18 18 18 18 18 18 18 18 18 18 17 17 17 17 17 17 17 17 17 17 17 17 17
25 26 27 27 25 23 24 22 22 22 22 22 22 21 21 21 20 20 20 20 19 19 19 19 19 18 18 18 18 18 18 18 18 18 18 18 17 17 17 17 17 17 17 17 17 17 17 17 17
26 27 27 27 25 22 22 22 21 21 21 21 21 21 21 21 21 20 20 20 19 19 19 19 18 18 18 18 18 18 18 18 18 18 18 17 17 17 17 17 17 17 17 17 17 17 17 17 17
28 27 25 22 20 21 22 22 21 20 21 21 21 21 21 21 20 20 20 20 19 19 19 18 18 18 18 18 18 18 18 18 18 17 17 17 17 17 17 17 17 17 17 17 17 17 17 17 17
26 23 21 22 20 20 21 21 20 21 21 21 21 21 21 21 20 20 20 19 19 19 18 18 18 17 17 17 17 17 17 18 18 18 18 17 17 17 17 17 17 17 17 16 16 16 17 17 17
25 22 21 22 21 20 21 21 20 22 22 22 21 21 21 20 20 20 20 19 19 19 18 18 18 17 17 17 17 17 17 17 17 18 17 17 17 17 17 17 17 17 17 17 16 16 16 16 17
26 24 21 20 21 20 20 21 21 21 21 21 21 20 20 20 20 20 20 19 19 19 18 18 18 17 17 17 17 17 17 17 17 17 17 17 17 17 17 17 17 17 17 16 16 16 16 16 16
26 24 20 20 21 21 21 21 20 21 20 20 20 20 20 20 20 20 19 19 19 18 18 18 18 17 17 17 17 17 17 17 17 17 17 17 17 17 17 17 17 17 16 16 16 16 16 16 16
26 24 21 19 19 20 20 20 21 20 20 20 20 20 20 20 20 20 19 19 19 18 18 18 18 17 17 17 17 17 17 17 17 17 17 17 17 17 17 17 16 16 16 16 16 16 16 16 16
25 24 21 21 20 19 19 20 22 20 20 20 20 20 20 20 20 20 19 19 18 18 18 17 18 17 17 17 17 17 17 17 17 17 16 16 16 16 16 16 16 16 16 16 16 16 16 16 16
Wind_Speed
6 6 2 1 3 3 4 4 4 6 5 6 10 11 8 5 4 4 5 16 19 18 18 22 23 23 22 21 21 20 19 18 18 17 17 16 16 16 15 14 14 13 13 13 13 13 13 14 15
4 4 1 3 4 3 5 2 4 6 9 11 11 9 8 5 6 8 8 17 21 18 18 21 24 23 23 22 21 20 19 18 18 17 16 16 15 15 15 14 14 13 13 13 13 13 13 13 14
3 1 2 3 1 3 5 3 1 6 11 10 7 5 4 4 7 7 11 20 18 15 18 22 25 24 23 22 21 20 19 18 17 16 16 16 15 15 15 14 14 13 13 12 12 12 12 12 13
1 3 3 2 5 7 7 7 3 3 7 8 8 5 2 2 5 11 20 20 19 15 17 23 25 24 23 22 21 20 19 18 17 16 16 15 15 14 14 14 14 13 13 12 12 12 12 12 12
2 3 3 3 6 5 7 5 4 5 5 6 8 5 2 3 13 21 21 20 19 15 15 21 24 24 23 22 21 20 19 18 17 16 16 15 15 15 14 14 14 13 12 12 11 11 11 11 11
2 3 1 4 6 6 4 4 5 7 7 7 8 6 1 5 16 19 18 18 18 17 14 19 23 23 23 22 21 20 19 18 17 16 16 15 15 14 14 14 13 12 12 11 10 9 9 9 9
3 2 3 5 6 5 3 2 7 8 7 6 9 7 2 6 13 16 16 16 15 15 13 13 18 20 22 21 21 20 19 18 17 16 16 15 14 14 13 13 12 12 11 10 9 8 8 8 8
5 2 3 4 5 5 3 1 6 10 7 7 8 9 7 10 13 14 15 15 15 13 12 11 13 16 17 18 20 20 19 18 17 16 16 15 14 14 13 12 12 11 10 9 8 7 6 6 6
3 1 5 6 5 5 4 1 2 5 7 4 3 6 11 17 17 16 14 13 13 14 11 10 10 12 14 15 18 19 18 17 16 15 15 14 11 12 11 11 11 11 10 9 7 6 5 4 4
5 4 9 8 7 6 4 1 4 4 6 4 4 7 15 19 19 19 18 18 17 16 13 11 11 10 12 13 14 13 14 14 13 12 12 11 10 10 10 11 11 10 9 8 7 5 4 3 3
6 8 11 12 12 6 3 1 1 7 4 6 10 14 17 17 17 19 19 19 19 18 15 13 12 11 10 7 11 9 9 11 11 11 11 11 9 8 8 8 8 8 8 6 5 4 3 2 3
6 11 11 11 9 5 3 1 0 3 7 10 16 17 17 17 17 17 19 18 16 16 15 13 11 10 9 9 8 8 7 7 7 10 12 9 6 5 6 6 6 6 5 5 4 3 3 3 4
8 9 9 9 7 4 1 1 2 3 5 11 15 16 16 15 14 13 14 14 15 15 14 13 11 10 9 8 7 8 7 8 9 10 11 11 6 4 5 5 6 7 6 5 4 4 3 3 4
7 10 12 10 7 4 0 2 2 3 8 13 15 14 14 15 14 12 13 14 15 16 16 13 12 10 9 9 7 7 7 9 9 9 10 11 9 6 5 4 4 5 7 7 6 5 3 2 3
7 9 12 7 5 3 3 4 3 6 10 12 13 13 13 11 12 14 16 16 15 15 14 13 13 11 11 10 9 7 8 9 7 8 10 11 10 9 6 4 3 4 7 6 4 3 3 2 2
8 6 6 9 6 4 3 5 7 6 10 10 11 12 12 10 10 11 14 14 13 14 14 13 13 11 10 8 7 5 7 8 7 9 9 10 10 10 7 4 3 5 6 5 3 3 2 2 2
4 4 8 10 6 3 1 4 4 6 9 9 9 10 11 10 8 10 13 14 15 15 14 13 11 11 9 8 5 5 5 6 7 8 8 9 9 10 7 4 3 5 4 3 3 3 3 3 3
6 6 9 11 8 4 3 3 2 5 9 10 10 10 10 12 10 11 12 12 12 13 13 12 11 11 9 7 6 4 4 4 5 6 7 9 9 9 8 4 4 5 3 3 3 3 2 2 3
9 11 14 15 10 2 3 3 2 6 8 9 9 9 10 9 9 10 12 12 11 10 11 12 11 9 8 6 6 5 5 4 4 4 8 9 9 8 6 4 4 4 4 4 4 3 3 2 2
12 12 12 12 7 2 1 1 0 2 6 9 10 10 10 9 8 9 10 11 12 12 11 11 11 10 9 7 6 5 5 4 4 3 6 9 9 8 6 5 4 4 4 4 3 3 3 1 2
14 11 10 9 6 6 3 4 3 3 1 3 6 8 9 12 12 11 11 11 11 11 12 12 11 10 10 9 6 5 5 4 3 4 4 5 8 8 7 6 5 4 4 4 3 4 4 2 1
12 14 11 7 2 4 1 2 6 3 2 0 2 4 7 9 10 10 11 11 12 12 11 10 10 10 9 10 9 10 8 6 6 5 5 4 6 7 8 7 6 5 4 4 4 4 3 4 2
12 13 8 4 1 3 4 2 6 2 2 3 2 4 4 7 9 10 10 11 10 10 11 10 10 9 9 9 11 10 7 6 5 5 6 5 4 5 7 8 6 5 4 4 4 4 4 3 3
10 5 6 6 6 2 4 2 5 4 5 4 4 5 4 6 7 8 8 8 7 8 9 9 10 9 9 10 10 10 10 9 9 7 7 5 3 3 5 7 5 5 4 4 5 5 5 4 4
4 2 4 5 5 5 3 1 6 7 5 3 5 5 6 6 7 8 9 8 8 9 9 10 10 9 9 10 10 10 10 11 11 9 8 6 4 4 5 5 5 4 4 4 4 4 4 4 4
7 9 8 5 5 5 3 3 5 5 2 2 3 4 5 6 7 9 9 9 9 9 9 10 10 9 10 10 9 9 9 8 7 8 7 7 5 5 6 6 6 5 5 4 4 3 3 3 3
6 6 11 8 3 1 3 3 5 2 2 4 4 3 4 7 8 8 8 8 8 9 9 10 10 9 9 9 9 8 8 8 8 7 6 5 5 5 7 7 6 5 5 5 5 3 2 3 3
9 8 6 6 4 3 3 3 4 3 3 4 5 5 5 7 9 8 8 8 7 8 8 9 9 9 8 9 9 8 8 8 8 7 7 6 6 5 7 7 6 6 5 5 4 3 2 3 2
2 3 6 5 6 6 3 5 6 8 8 8 8 7 8 8 9 10 9 8 8 7 8 9 9 9 8 8 7 8 7 7 8 7 7 6 5 6 7 6 6 6 5 5 4 3 3 3 2
5 6 7 5 3 5 5 6 5 7 8 7 6 6 7 8 9 9 9 9 8 8 8 8 9 9 9 9 8 8 8 8 8 7 7 7 6 6 6 6 5 5 4 5 5 4 3 3 3
Wind_Direction
206 204 179 65 31 23 288 254 145 99 77 76 87 95 100 101 134 150 133 139 138 144 149 148 145 141 138 136 133 130 128 126 124 122 120 119 118 117 117 116 115 113 112 111 112 113 115 118 121
202 201 143 53 61 350 294 258 119 121 123 106 85 88 83 70 93 111 123 141 140 142 146 147 145 143 141 139 137 135 133 132 130 128 126 125 123 122 122 120 118 116 114 115 115 115 117 121 123
222 191 87 62 44 243 278 280 92 116 119 108 96 68 85 110 116 129 143 140 137 140 144 148 146 145 143 141 140 139 137 136 134 132 130 129 127 125 124 122 120 119 117 116 117 118 119 122 124
124 52 48 62 258 251 246 252 177 124 101 88 102 87 72 133 139 137 139 140 138 139 144 148 147 146 145 144 142 141 140 140 138 136 133 131 129 127 125 123 121 120 118 117 118 119 121 123 125
91 82 40 302 265 263 247 231 180 142 122 110 110 110 45 36 120 134 142 142 140 139 144 148 147 147 146 146 145 144 143 142 142 140 136 133 131 128 127 126 124 123 122 121 120 121 122 124 125
56 82 57 280 279 277 260 210 151 118 114 124 116 117 90 122 131 140 142 141 142 142 143 147 148 148 148 148 148 148 147 146 145 144 140 138 136 133 131 132 130 128 126 125 124 125 125 126 126
158 136 227 252 280 288 261 173 131 130 127 146 134 124 138 147 140 139 139 136 139 141 142 145 149 151 151 152 152 151 150 150 149 147 145 143 141 139 139 139 137 135 134 132 131 129 128 128 126
168 117 278 267 271 283 251 158 133 130 138 135 135 145 170 167 138 133 134 135 139 143 148 150 151 151 153 155 156 155 154 154 154 152 151 150 149 148 147 146 145 144 143 140 138 136 132 130 126
149 100 253 245 257 277 269 109 128 109 115 120 143 159 149 142 135 135 135 138 147 152 155 155 152 150 151 154 159 158 158 159 159 159 159 156 153 153 155 158 157 155 153 151 148 146 140 130 119
143 195 242 234 244 265 282 170 147 111 97 92 89 112 131 138 144 148 153 158 161 162 165 164 159 157 156 160 156 157 158 161 161 162 160 157 162 169 171 175 170 165 162 162 162 159 154 131 108
193 220 255 268 265 263 287 286 119 129 141 171 160 151 148 143 151 158 164 166 168 166 167 168 165 163 164 155 154 157 158 162 167 171 170 170 176 185 180 178 179 173 172 171 177 171 173 162 147
250 261 266 275 281 286 262 220 105 160 184 169 162 155 153 152 160 167 170 170 166 166 169 165 168 168 168 158 161 164 163 171 177 182 181 176 174 174 171 174 178 181 182 180 175 177 199 189 177
273 284 293 285 289 278 284 242 174 191 143 135 145 148 156 160 164 170 167 163 163 167 168 168 167 170 166 159 169 170 172 178 181 179 181 175 166 163 169 176 183 193 190 183 176 185 192 175 163
285 310 309 302 299 291 269 307 123 191 136 132 142 155 163 166 166 164 163 166 169 169 166 167 169 174 167 168 173 167 172 174 175 174 176 172 165 162 160 163 176 189 191 186 179 181 174 166 155
318 325 317 304 298 284 49 339 237 180 141 138 150 155 158 164 165 168 169 169 170 168 165 167 170 174 175 173 174 164 167 166 168 169 168 164 161 158 155 155 167 180 182 174 167 164 143 146 147
340 335 312 296 299 287 93 260 250 167 140 145 157 157 157 164 171 167 163 164 166 162 163 169 172 169 171 167 163 155 161 158 160 160 158 157 156 153 147 148 162 165 157 151 143 138 130 126 135
344 306 291 296 287 297 64 255 255 160 145 149 155 158 154 155 163 160 160 164 166 165 165 164 164 163 166 159 150 145 149 148 153 152 150 153 153 152 144 148 156 150 135 134 151 133 137 143 153
265 281 289 289 288 296 292 250 207 158 151 154 156 158 155 159 168 163 159 162 163 163 164 161 164 161 158 151 135 124 121 136 143 145 150 148 146 147 140 139 140 133 122 122 128 127 118 135 155
258 276 282 282 279 262 249 237 187 164 152 156 159 162 160 160 158 153 156 159 159 162 164 164 164 163 156 154 151 145 150 149 151 155 154 150 144 140 134 133 131 127 134 147 141 125 109 101 113
266 275 283 288 291 241 226 356 69 164 177 170 167 169 161 146 149 155 155 159 167 171 172 168 169 164 162 163 157 151 149 152 157 155 149 150 146 145 147 140 135 131 126 124 122 116 111 91 122
266 259 261 275 319 9 63 4 328 305 0 139 156 161 160 163 164 164 164 166 169 174 178 175 172 169 168 160 143 134 123 115 125 144 152 153 150 149 147 142 136 136 134 140 141 132 128 123 75
263 262 259 276 345 315 30 254 289 290 313 315 146 150 165 168 165 169 169 172 177 180 176 170 170 172 169 160 157 158 160 164 174 166 160 153 148 149 149 142 137 135 136 140 144 132 127 125 102
249 257 257 262 88 10 352 118 284 308 271 263 213 172 170 174 173 173 174 175 175 173 173 174 168 170 167 164 164 164 166 165 155 147 148 150 151 152 149 142 133 129 130 136 127 116 112 120 130
259 287 5 39 66 352 272 172 267 252 233 237 204 179 172 179 178 171 165 158 159 163 168 171 171 174 171 169 168 167 166 160 154 156 158 158 155 154 153 142 135 134 133 140 137 127 124 123 120
279 91 19 350 3 261 276 187 247 259 252 209 202 201 181 173 172 168 160 160 163 166 166 168 171 175 174 171 170 169 165 163 165 167 167 163 162 163 169 149 142 141 147 148 137 126 126 133 128
229 149 162 200 226 269 315 230 256 271 278 192 162 171 172 169 176 173 169 168 168 168 166 167 173 175 175 172 169 165 161 164 169 169 165 169 173 172 166 154 150 148 148 143 137 131 137 133 133
204 197 176 152 176 240 274 273 302 301 66 96 123 143 176 171 174 173 165 165 165 164 167 170 170 170 172 168 161 162 161 162 166 164 160 165 167 166 160 157 153 151 148 143 137 130 143 140 141
183 170 107 124 160 236 267 237 224 234 164 146 161 181 182 173 171 167 164 167 167 162 160 162 162 163 160 163 169 168 163 160 157 154 158 163 164 157 157 159 158 155 151 146 137 134 139 136 143
162 144 129 131 150 157 214 263 222 195 185 182 190 183 177 177 172 166 165 162 156 152 156 157 159 157 162 168 168 163 162 155 147 150 155 154 153 156 161 163 161 159 156 151 145 154 147 144 137
155 168 144 148 217 163 163 255 258 188 190 184 172 176 181 174 169 165 160 150 150 153 157 162 165 168 172 172 167 167 164 153 149 151 152 148 146 150 151 150 149 151 147 145 148 156 135 128 123
Height
1513 1512 1512 1512 1513 1518 1517 1501 1489 1487 1487 1488 1488 1491 1494 1498 1503 1510 1506 1507 1511 1515 1518 1522 1524 1526 1528 1529 1531 1532 1534 1535 1536 1537 1538 1539 1541 1542 1543 1543 1544 1545 1546 1546 1547 1548 1548 1549 1550
1513 1512 1513 1513 1520 1529 1516 1496 1490 1486 1487 1489 1491 1493 1495 1498 1499 1502 1504 1508 1512 1515 1518 1521 1524 1526 1528 1530 1531 1533 1534 1536 1537 1538 1539 1540 1541 1543 1543 1544 1545 1546 1547 1548 1548 1549 1550 1550 1551
1513 1512 1513 1515 1523 1525 1513 1495 1491 1487 1487 1488 1493 1495 1497 1500 1500 1502 1504 1508 1512 1515 1519 1521 1524 1526 1528 1530 1532 1533 1535 1537 1538 1539 1540 1541 1542 1543 1544 1545 1546 1547 1548 1549 1549 1550 1551 1552 1553
1513 1514 1514 1520 1522 1510 1501 1493 1489 1489 1488 1489 1492 1497 1498 1500 1500 1501 1504 1508 1511 1515 1519 1521 1524 1526 1528 1530 1532 1534 1536 1537 1539 1540 1541 1543 1544 1545 1546 1547 1548 1549 1549 1550 1551 1552 1553 1554 1555
1513 1514 1519 1523 1515 1500 1491 1488 1487 1487 1488 1491 1492 1497 1499 1500 1500 1501 1504 1508 1511 1515 1519 1521 1524 1526 1528 1530 1532 1534 1536 1538 1539 1541 1542 1544 1545 1546 1547 1548 1549 1550 1551 1552 1553 1553 1555 1556 1557
1514 1514 1525 1526 1510 1495 1489 1486 1485 1485 1488 1491 1493 1497 1500 1501 1500 1502 1506 1509 1511 1514 1518 1521 1524 1526 1528 1531 1533 1535 1537 1538 1540 1542 1543 1545 1546 1547 1548 1549 1550 1551 1552 1553 1554 1555 1556 1557 1558
1514 1516 1521 1515 1506 1494 1486 1483 1483 1484 1486 1489 1491 1496 1500 1502 1502 1503 1506 1509 1512 1514 1518 1521 1524 1526 1528 1531 1533 1535 1537 1539 1541 1542 1544 1545 1547 1548 1549 1550 1552 1553 1554 1555 1556 1557 1558 1559 1560
1510 1513 1516 1512 1504 1494 1484 1482 1482 1481 1485 1487 1489 1492 1496 1500 1502 1503 1506 1510 1512 1514 1517 1520 1523 1525 1528 1530 1533 1535 1537 1539 1541 1543 1544 1546 1548 1549 1550 1552 1553 1554 1555 1556 1557 1558 1559 1560 1561
1508 1515 1518 1508 1500 1490 1482 1482 1482 1481 1482 1486 1487 1487 1490 1496 1500 1503 1506 1509 1511 1514 1516 1519 1522 1525 1527 1530 1532 1535 1537 1539 1541 1543 1545 1547 1548 1550 1551 1552 1553 1554 1556 1557 1558 1559 1560 1561 1562
1505 1515 1506 1493 1489 1485 1482 1480 1479 1481 1483 1486 1488 1488 1491 1494 1497 1500 1502 1504 1508 1511 1515 1518 1521 1524 1527 1529 1532 1535 1537 1539 1541 1543 1545 1547 1549 1550 1552 1553 1554 1555 1556 1558 1559 1560 1561 1562 1563
1500 1502 1491 1486 1483 1482 1480 1479 1478 1479 1483 1483 1485 1487 1490 1492 1495 1497 1499 1501 1504 1508 1513 1517 1520 1523 1525 1528 1531 1534 1537 1539 1541 1543 1545 1547 1549 1551 1552 1553 1554 1556 1557 1558 1560 1561 1562 1563 1564
1497 1491 1487 1483 1480 1478 1477 1477 1478 1476 1477 1478 1480 1484 1488 1490 1492 1495 1497 1500 1503 1507 1511 1515 1519 1522 1525 1527 1530 1533 1536 1538 1541 1543 1545 1547 1549 1550 1552 1553 1555 1556 1557 1559 1560 1561 1562 1563 1564
1492 1488 1484 1480 1478 1475 1475 1475 1476 1476 1476 1476 1479 1482 1485 1488 1491 1494 1496 1498 1502 1505 1509 1513 1517 1520 1523 1526 1530 1533 1536 1538 1541 1543 1545 1547 1549 1550 1552 1553 1555 1556 1557 1559 1560 1561 1562 1563 1564
1490 1486 1482 1477 1475 1473 1474 1475 1475 1475 1475 1476 1478 1480 1483 1486 1489 1492 1495 1498 1501 1503 1507 1511 1515 1519 1522 1525 1529 1532 1535 1538 1540 1543 1544 1547 1549 1550 1552 1553 1554 1556 1557 1558 1560 1561 1562 1563 1564
1488 1487 1482 1475 1473 1472 1473 1478 1474 1473 1475 1476 1477 1480 1482 1486 1488 1491 1493 1496 1499 1501 1504 1509 1513 1517 1521 1524 1528 1531 1534 1537 1539 1542 1544 1546 1548 1550 1551 1553 1554 1555 1557 1558 1559 1560 1561 1562 1563
1489 1492 1494 1479 1472 1469 1476 1486 1472 1473 1474 1476 1477 1479 1482 1485 1488 1490 1492 1494 1498 1501 1503 1507 1511 1515 1519 1523 1527 1530 1533 1536 1538 1541 1543 1546 1547 1549 1551 1552 1553 1555 1556 1557 1558 1560 1561 1562 1563
1498 1504 1499 1484 1470 1468 1474 1481 1471 1472 1473 1475 1477 1479 1481 1484 1487 1489 1491 1494 1497 1499 1502 1506 1509 1512 1516 1521 1526 1529 1532 1534 1537 1540 1542 1545 1547 1548 1550 1551 1553 1554 1555 1556 1557 1559 1560 1561 1562
1507 1503 1497 1489 1473 1470 1474 1476 1471 1473 1473 1474 1475 1477 1480 1483 1485 1488 1490 1493 1495 1498 1501 1503 1507 1511 1515 1519 1524 1527 1531 1533 1536 1538 1541 1543 1545 1547 1549 1551 1552 1553 1554 1555 1557 1558 1560 1561 1562
1495 1497 1495 1483 1469 1472 1475 1475 1472 1472 1473 1473 1474 1477 1479 1482 1485 1487 1489 1492 1494 1496 1498 1501 1505 1509 1513 1517 1521 1524 1528 1532 1534 1537 1539 1542 1544 1546 1548 1549 1551 1552 1553 1555 1556 1557 1559 1560 1561
1490 1494 1491 1479 1468 1470 1476 1477 1473 1473 1472 1472 1473 1475 1478 1481 1484 1486 1488 1490 1493 1495 1497 1500 1503 1507 1511 1515 1519 1523 1527 1530 1534 1536 1538 1541 1543 1545 1546 1548 1550 1551 1552 1554 1555 1557 1558 1559 1561
1487 1489 1486 1482 1473 1471 1478 1487 1480 1475 1474 1474 1474 1475 1477 1479 1482 1484 1487 1489 1491 1494 1496 1498 1502 1505 1509 1513 1517 1521 1525 1529 1532 1534 1537 1539 1541 1543 1545 1547 1548 1550 1551 1553 1554 1556 1557 1558 1560
1487 1474 1473 1474 1482 1492 1485 1504 1488 1480 1477 1475 1476 1478 1479 1480 1481 1483 1485 1487 1489 1491 1494 1496 1500 1504 1507 1511 1515 1518 1522 1525 1529 1532 1535 1537 1540 1542 1544 1546 1547 1549 1550 1552 1553 1555 1556 1558 1559
1474 1465 1468 1470 1480 1493 1491 1499 1496 1483 1481 1477 1475 1476 1479 1480 1481 1482 1484 1486 1489 1491 1492 1495 1498 1502 1505 1508 1512 1517 1520 1524 1528 1531 1534 1536 1538 1541 1543 1544 1546 1548 1549 1551 1552 1554 1555 1557 1558
1462 1465 1471 1480 1492 1507 1496 1499 1500 1486 1478 1475 1472 1473 1476 1479 1481 1482 1484 1486 1488 1490 1491 1494 1496 1500 1503 1506 1510 1514 1518 1521 1525 1528 1531 1534 1537 1539 1541 1543 1545 1547 1548 1550 1552 1553 1555 1556 1558
1463 1483 1505 1506 1516 1513 1495 1497 1496 1476 1471 1470 1470 1471 1474 1477 1479 1481 1483 1485 1487 1488 1490 1492 1495 1498 1501 1504 1508 1512 1516 1519 1522 1526 1529 1532 1534 1537 1539 1541 1543 1545 1547 1549 1550 1552 1553 1555 1556
1464 1479 1505 1516 1519 1511 1496 1498 1487 1471 1468 1467 1468 1470 1474 1476 1478 1480 1481 1483 1485 1487 1489 1491 1493 1496 1499 1502 1506 1510 1514 1518 1521 1524 1527 1530 1533 1535 1538 1540 1542 1544 1546 1548 1549 1550 1552 1553 1555
1461 1469 1474 1494 1500 1509 1504 1493 1480 1470 1468 1467 1468 1471 1474 1475 1478 1479 1480 1482 1484 1486 1487 1489 1491 1494 1497 1501 1504 1508 1512 1515 1519 1522 1526 1529 1532 1534 1537 1539 1541 1543 1545 1546 1548 1549 1551 1552 1553
1447 1455 1477 1492 1507 1514 1504 1497 1492 1477 1472 1469 1469 1471 1473 1475 1477 1479 1480 1481 1483 1485 1487 1489 1491 1493 1496 1500 1503 1507 1510 1513 1517 1521 1524 1527 1530 1533 1535 1537 1540 1542 1543 1545 1547 1548 1550 1551 1552
1451 1458 1469 1486 1493 1507 1511 1501 1472 1470 1468 1467 1467 1469 1471 1474 1476 1477 1478 1480 1483 1485 1486 1488 1490 1492 1495 1498 1502 1505 1508 1512 1516 1519 1523 1526 1529 1531 1534 1536 1538 1540 1542 1544 1546 1547 1549 1550 1550
1445 1453 1466 1484 1490 1494 1501 1496 1464 1464 1463 1464 1465 1467 1469 1472 1474 1476 1478 1480 1482 1484 1486 1488 1490 1492 1494 1497 1500 1504 1507 1511 1514 1518 1522 1525 1527 1530 1533 1535 1537 1539 1541 1543 1545 1546 1547 1548 1549